Volver al catálogo

STARLINK-30318

ActivoComunicacionesVLEO
NORAD 57711·PAYLOAD·🇺🇸 United States

Lanzado Aug 27, 2023 desde Cape Canaveral Space Force Station

Loading…

Próximos Pases (próximas 24 horas)

TLE

ActualizadoSource: CelesTrak SupGP

Época: Sep 15, 2026, 03:10 UTC

1 57711C 23129P   26258.13243056  .00059518  00000+0  21546-2 0  2580
2 57711  43.0027 127.7350 0001486 270.1978 274.8640 15.27566071    19

Sigue STARLINK-30318 en tiempo real con AllMySat

Download on the App Store